• Join FlightAware (Why Join?)
  • Login
  • US Flag 
11:33PM EDT


 

Airport Tracker/Info


-or-


 

Live Flight TrackerFlight Track Log ✈ N6829K ✈ 02-May-2013 ✈ KFAR - KABR

Flight Track Log - Related Links

Times and Time Zones

All times are in EDT time to prevent confusion due to time zone crossing. See the N6829K flight status page for this flight to view local times or setup timezone preferences in your user account.

Time Position Orientation Groundspeed Altitude Reporting Facility
EDT Latitude Longitude Course Direction KTS MPH feet Rate Location/Type
06:23PM 46.8572 -97.0119 215° Southwest 172 198 5,100  Level Minneapolis Center
06:24PM 46.8153 -97.0583 217° Southwest 180 207 6,300 1,020 Climbing Minneapolis Center
06:25PM 46.7728 -97.1039 216° Southwest 183 211 7,300 780 Climbing Minneapolis Center
06:26PM 46.6818 -97.0753 218° Southwest  Level FlightAware Approximate
06:26PM 46.7283 -97.1494 215° Southwest 184 212 8,000  Level Minneapolis Center
06:27PM 46.6422 -97.1203 218° Southwest  Level FlightAware Approximate
06:27PM 46.6800 -97.1975 214° Southwest 200 230 8,000  Level Minneapolis Center
06:28PM 46.6350 -97.2428 215° Southwest 202 232 8,000  Level Minneapolis Center
06:29PM 46.5881 -97.2914 215° Southwest 200 230 8,000  Level Minneapolis Center
06:30PM 46.5403 -97.3408 215° Southwest 200 230 8,000  Level Minneapolis Center
06:31PM 46.4936 -97.3883 215° Southwest 198 228 8,000  Level Minneapolis Center
06:32PM 46.4461 -97.4369 215° Southwest 200 230 8,000  Level Minneapolis Center
06:33PM 46.3989 -97.4856 215° Southwest 199 229 8,000  Level Minneapolis Center
06:34PM 46.3550 -97.5297 215° Southwest 200 230 8,000  Level Minneapolis Center
06:35PM 46.3072 -97.5781 215° Southwest 199 229 8,000  Level Minneapolis Center
06:36PM 46.2594 -97.6258 215° Southwest 203 234 8,000  Level Minneapolis Center
06:37PM 46.2006 -97.6844 215° Southwest 201 231 8,000  Level Minneapolis Center
06:38PM 46.1567 -97.7292 215° Southwest 199 229 8,000  Level Minneapolis Center
06:39PM 46.1125 -97.7728 214° Southwest 199 229 8,000  Level Minneapolis Center
06:40PM 46.0672 -97.8169 214° Southwest 198 228 8,000 -120 Level Minneapolis Center
06:42PM 46.0214 -97.8614 214° Southwest 199 229 7,800 -420 Descending Minneapolis Center
06:43PM 45.9658 -97.9167 215° Southwest 202 232 7,200 -540 Descending Minneapolis Center
06:44PM 45.9183 -97.9692 218° Southwest 205 236 6,800 -420 Descending Minneapolis Center
06:45PM 45.8731 -98.0136 214° Southwest 202 232 6,400 -480 Descending Minneapolis Center
06:46PM 45.8267 -98.0561 213° Southwest 200 230 5,900 -480 Descending Minneapolis Center
06:47PM 45.7789 -98.0969 211° Southwest 199 229 5,400 -420 Descending Minneapolis Center
06:49PM 45.7100 -98.1560 211° Southwest  Level FlightAware Approximate
06:56PM 45.4491 -98.4218 215° Southwest  Level Estimated
06:57PM 45.4491 -98.4218 215° Southwest  Level Estimated
06:58PM 45.4491 -98.4218 215° Southwest  Level Estimated
06:59PM 45.4491 -98.4218 215° Southwest  Level Estimated